EXS56YA GMAD-EGBB

Flight info

Callsign EXS56YA
Flight time N/A
Altitude 36000
Route MOGBA UH300 ESS DCT TAKAV DCT BEVOP DCT ROTBU DCT PINEK DCT KORUL DCT KOLEK DCT EBOMO DCT RUSIB DCT NOZHU DCT SHIRI DCT TOJAQ P16 EPACE N91 FIGZI
Aircraft B738/M-SDE2E3FGHIRWXY/LB1

Departure

Time 2026-04-21 14:40
Airport Al Massira Airport (GMAD)

Arrival

Time N/A
Airport Birmingham Airport (EGBB)
Time Latitude Longitude Altitude Speed Heading
2026-04-21 14:20 30.32857 -9.41168 259 ft 0 kts
2026-04-21 14:31 30.32846 -9.41169 259 ft 2 kts
2026-04-21 14:31 30.32830 -9.41171 259 ft 2 kts 26°
2026-04-21 14:32 30.32818 -9.41182 259 ft 2 kts 50°
2026-04-21 14:32 30.32811 -9.41197 259 ft 2 kts 76°
2026-04-21 14:32 30.32810 -9.41215 259 ft 2 kts 97°
2026-04-21 14:32 30.32811 -9.41231 259 ft 1 kts 90°
2026-04-21 14:33 30.32811 -9.41239 259 ft 1 kts 93°
2026-04-21 14:33 30.32811 -9.41240 259 ft 0 kts 92°
2026-04-21 14:34 30.32811 -9.41238 259 ft 1 kts 92°
2026-04-21 14:35 30.32809 -9.41195 259 ft 8 kts 93°
2026-04-21 14:35 30.32807 -9.41102 259 ft 14 kts 91°
2026-04-21 14:35 30.32804 -9.40968 259 ft 19 kts 92°
2026-04-21 14:35 30.32800 -9.40793 259 ft 21 kts 91°
2026-04-21 14:36 30.32746 -9.40676 259 ft 15 kts 169°
2026-04-21 14:36 30.32636 -9.40673 259 ft 17 kts 182°
2026-04-21 14:36 30.32505 -9.40678 259 ft 18 kts 179°
2026-04-21 14:36 30.32436 -9.40600 259 ft 14 kts 92°
2026-04-21 14:37 30.32434 -9.40464 259 ft 18 kts 91°
2026-04-21 14:37 30.32430 -9.40297 259 ft 22 kts 92°
2026-04-21 14:37 30.32426 -9.40095 259 ft 26 kts 92°
2026-04-21 14:37 30.32420 -9.39864 259 ft 29 kts 91°
2026-04-21 14:38 30.32414 -9.39635 259 ft 26 kts 92°
2026-04-21 14:38 30.32391 -9.39470 259 ft 16 kts 140°
2026-04-21 14:38 30.32300 -9.39462 259 ft 11 kts 209°
2026-04-21 14:38 30.32242 -9.39510 259 ft 9 kts 225°
2026-04-21 14:39 30.32225 -9.39590 259 ft 16 kts 271°
2026-04-21 14:39 30.32235 -9.40017 259 ft 88 kts 271°
2026-04-21 14:39 30.32258 -9.40974 259 ft 147 kts 271°
2026-04-21 14:39 30.32306 -9.42311 649 ft 168 kts 272°
2026-04-21 14:40 30.32374 -9.43637 1452 ft 166 kts 269°
2026-04-21 14:40 30.32392 -9.45010 1972 ft 179 kts 268°
2026-04-21 14:40 30.32412 -9.46588 2162 ft 206 kts 268°
2026-04-21 14:40 30.32443 -9.48334 2568 ft 223 kts 269°
2026-04-21 14:41 30.32282 -9.50134 3263 ft 227 kts 248°
2026-04-21 14:41 30.31344 -9.51645 3780 ft 241 kts 223°
2026-04-21 14:41 30.30078 -9.52931 4570 ft 245 kts 222°
2026-04-21 14:41 30.28798 -9.54294 5355 ft 249 kts 224°
2026-04-21 14:42 30.27676 -9.55821 6147 ft 253 kts 238°
2026-04-21 14:42 30.27039 -9.57725 6926 ft 258 kts 251°
2026-04-21 14:42 30.26596 -9.59774 7685 ft 262 kts 252°
2026-04-21 14:42 30.26142 -9.61838 8407 ft 265 kts 251°
2026-04-21 14:43 30.25664 -9.63925 9125 ft 269 kts 250°
2026-04-21 14:43 30.25174 -9.66022 9823 ft 272 kts 249°
2026-04-21 14:43 30.24661 -9.68182 10255 ft 286 kts 249°
2026-04-21 14:43 30.24403 -9.70633 10295 ft 323 kts 270°
2026-04-21 14:44 30.25121 -9.73186 10670 ft 349 kts 293°
2026-04-21 14:44 30.26518 -9.75581 11182 ft 366 kts 308°
2026-04-21 14:44 30.28606 -9.77361 11748 ft 382 kts 333°
2026-04-21 14:44 30.31255 -9.78038 12380 ft 391 kts 358°
2026-04-21 14:45 30.33984 -9.77885 13043 ft 394 kts
2026-04-21 14:45 30.36727 -9.77627 13615 ft 399 kts
2026-04-21 14:45 30.39524 -9.77369 14280 ft 401 kts
2026-04-21 14:45 30.42328 -9.77118 14884 ft 404 kts
2026-04-21 14:46 30.45144 -9.76871 15484 ft 407 kts
2026-04-21 14:46 30.48024 -9.76622 16063 ft 411 kts
2026-04-21 14:46 30.50893 -9.76376 16636 ft 413 kts
2026-04-21 14:46 30.53768 -9.76130 17184 ft 417 kts
2026-04-21 14:47 30.56708 -9.75879 17735 ft 420 kts
2026-04-21 14:47 30.59640 -9.75626 18273 ft 422 kts
2026-04-21 14:47 30.62601 -9.75370 18795 ft 425 kts
2026-04-21 14:47 30.65560 -9.75113 19303 ft 428 kts
2026-04-21 14:48 30.68567 -9.74853 19817 ft 431 kts
2026-04-21 14:48 30.71579 -9.74592 20289 ft 434 kts
2026-04-21 14:48 30.74621 -9.74328 20788 ft 436 kts
2026-04-21 14:48 30.77660 -9.74064 21259 ft 439 kts
2026-04-21 14:49 30.80718 -9.73799 21707 ft 442 kts
2026-04-21 14:49 30.83822 -9.73529 22159 ft 444 kts
2026-04-21 14:49 30.86919 -9.73261 22606 ft 447 kts
2026-04-21 14:49 30.90046 -9.72989 23040 ft 449 kts
2026-04-21 14:50 30.93193 -9.72717 23514 ft 450 kts
2026-04-21 14:50 30.96318 -9.72446 23940 ft 452 kts
2026-04-21 14:50 30.99467 -9.72173 24377 ft 453 kts
2026-04-21 14:50 31.02636 -9.71898 24830 ft 454 kts
2026-04-21 14:51 31.05804 -9.71627 25217 ft 456 kts
2026-04-21 14:51 31.08996 -9.71354 25589 ft 459 kts
2026-04-21 14:51 31.12208 -9.71080 25965 ft 460 kts
2026-04-21 14:51 31.15410 -9.70806 26299 ft 463 kts
2026-04-21 14:52 31.18643 -9.70529 26640 ft 465 kts
2026-04-21 14:52 31.21811 -9.70258 26963 ft 467 kts
2026-04-21 14:52 31.24941 -9.69990 27270 ft 469 kts
2026-04-21 14:52 31.28208 -9.69710 27605 ft 470 kts
2026-04-21 14:53 31.31502 -9.69428 27912 ft 473 kts
2026-04-21 14:53 31.34791 -9.69147 28238 ft 474 kts
2026-04-21 14:53 31.38119 -9.68861 28511 ft 477 kts
2026-04-21 14:53 31.41431 -9.68585 28832 ft 478 kts
2026-04-21 14:54 31.44755 -9.68356 29113 ft 480 kts
2026-04-21 14:54 31.48112 -9.68142 29370 ft 482 kts
2026-04-21 14:54 31.51517 -9.67925 29661 ft 483 kts
2026-04-21 14:54 31.54854 -9.67711 29936 ft 485 kts
2026-04-21 14:55 31.58281 -9.67489 30216 ft 486 kts
2026-04-21 14:55 31.61688 -9.67268 30510 ft 487 kts
2026-04-21 14:55 31.65043 -9.67049 30871 ft 486 kts
2026-04-21 14:55 31.68468 -9.66824 31242 ft 484 kts
2026-04-21 14:56 31.71840 -9.66602 31607 ft 483 kts
2026-04-21 14:56 31.75197 -9.66382 31902 ft 483 kts
2026-04-21 14:56 31.78581 -9.66164 32242 ft 482 kts
2026-04-21 14:56 31.81908 -9.65943 32550 ft 481 kts
2026-04-21 14:57 31.85269 -9.65717 32878 ft 480 kts
2026-04-21 14:57 31.88623 -9.65496 33161 ft 480 kts
2026-04-21 14:57 31.91977 -9.65270 33512 ft 478 kts
2026-04-21 14:57 31.95302 -9.65052 33834 ft 476 kts
2026-04-21 14:58 31.98634 -9.64832 34076 ft 476 kts
2026-04-21 14:58 32.01949 -9.64611 34333 ft 476 kts
2026-04-21 14:58 32.05229 -9.64399 34646 ft 474 kts
2026-04-21 14:58 32.08542 -9.64186 34918 ft 473 kts
2026-04-21 14:59 32.11857 -9.63967 35127 ft 473 kts
2026-04-21 14:59 32.15160 -9.63743 35348 ft 473 kts
2026-04-21 14:59 32.18452 -9.63522 35583 ft 473 kts
2026-04-21 14:59 32.21745 -9.63295 35834 ft 472 kts
2026-04-21 15:00 32.25063 -9.63076 35918 ft 474 kts
2026-04-21 15:00 32.31675 -9.62641 35910 ft 472 kts
2026-04-21 15:01 32.38247 -9.62202 35912 ft 469 kts
2026-04-21 15:01 32.44758 -9.61768 35913 ft 470 kts
2026-04-21 15:02 32.51364 -9.61323 35941 ft 472 kts
2026-04-21 15:02 32.57973 -9.60875 35938 ft 472 kts
2026-04-21 15:03 32.64564 -9.60430 35942 ft 474 kts
2026-04-21 15:03 32.71236 -9.59987 35939 ft 483 kts
2026-04-21 15:04 32.77997 -9.59514 35937 ft 484 kts
2026-04-21 15:04 32.84742 -9.59062 35938 ft 482 kts
2026-04-21 15:05 32.91480 -9.58616 35939 ft 481 kts
2026-04-21 15:05 33.01558 -9.57931 35939 ft 480 kts
2026-04-21 15:06 33.08196 -9.57487 35937 ft 475 kts
2026-04-21 15:06 33.14795 -9.57042 35933 ft 470 kts
2026-04-21 15:07 33.21368 -9.56594 35925 ft 471 kts
2026-04-21 15:07 33.27905 -9.56147 35914 ft 471 kts
2026-04-21 15:08 33.34494 -9.55700 35912 ft 472 kts
2026-04-21 15:08 33.41076 -9.55239 35912 ft 472 kts
2026-04-21 15:09 33.47627 -9.54791 35911 ft 472 kts
2026-04-21 15:09 33.54234 -9.54333 35912 ft 471 kts
2026-04-21 15:10 33.60812 -9.53890 35912 ft 471 kts
2026-04-21 15:10 33.67386 -9.53438 35912 ft 472 kts
2026-04-21 15:11 33.73957 -9.52982 35912 ft 472 kts
2026-04-21 15:11 33.80554 -9.52531 35912 ft 473 kts
2026-04-21 15:12 33.87132 -9.52067 35911 ft 472 kts
2026-04-21 15:12 33.93711 -9.51619 35912 ft 471 kts
2026-04-21 15:13 33.96732 -9.51409 35912 ft 471 kts
2026-04-21 15:13 34.01205 -9.51103 35912 ft 471 kts
2026-04-21 15:14 34.07805 -9.50640 35911 ft 472 kts
2026-04-21 15:14 34.14358 -9.50177 35911 ft 471 kts
2026-04-21 15:15 34.20955 -9.49712 35912 ft 471 kts
2026-04-21 15:15 34.27528 -9.49257 35912 ft 472 kts
2026-04-21 15:16 34.34118 -9.48789 35912 ft 473 kts
2026-04-21 15:16 34.40679 -9.48337 35907 ft 472 kts
2026-04-21 15:17 34.47235 -9.47881 35885 ft 471 kts
2026-04-21 15:17 34.53788 -9.47422 35885 ft 472 kts
2026-04-21 15:18 34.60357 -9.46963 35885 ft 473 kts
2026-04-21 15:18 34.66986 -9.46491 35885 ft 473 kts
2026-04-21 15:19 34.73569 -9.46027 35885 ft 471 kts
2026-04-21 15:19 34.80136 -9.45559 35885 ft 471 kts
2026-04-21 15:20 34.86699 -9.45101 35885 ft 471 kts
2026-04-21 15:20 34.93326 -9.44666 35867 ft 477 kts
2026-04-21 15:21 34.99989 -9.44592 35832 ft 471 kts
2026-04-21 15:21 35.03238 -9.44697 35815 ft 453 kts
2026-04-21 15:21 35.06348 -9.44790 35798 ft 436 kts
2026-04-21 15:22 35.12346 -9.44771 35807 ft 433 kts
2026-04-21 15:22 35.18480 -9.44496 35805 ft 440 kts
2026-04-21 15:23 35.24609 -9.44000 35802 ft 437 kts
2026-04-21 15:23 35.30638 -9.43269 35804 ft 434 kts 10°
2026-04-21 15:24 35.36701 -9.42383 35804 ft 435 kts 10°
2026-04-21 15:24 35.42760 -9.41532 35804 ft 436 kts
2026-04-21 15:25 35.48817 -9.40879 35804 ft 437 kts
2026-04-21 15:25 35.54906 -9.40339 35804 ft 436 kts
2026-04-21 15:26 35.61036 -9.39844 35804 ft 436 kts
2026-04-21 15:26 35.67083 -9.39380 35804 ft 437 kts
2026-04-21 15:27 35.73207 -9.38922 35804 ft 437 kts
2026-04-21 15:27 35.79271 -9.38477 35804 ft 437 kts
2026-04-21 15:28 35.85402 -9.38028 35803 ft 437 kts
2026-04-21 15:28 35.91468 -9.37586 35804 ft 437 kts
2026-04-21 15:29 35.97601 -9.37160 35803 ft 437 kts
2026-04-21 15:29 36.03692 -9.37183 35804 ft 439 kts
2026-04-21 15:30 36.09828 -9.37281 35804 ft 439 kts
2026-04-21 15:30 36.15939 -9.37359 35804 ft 439 kts
2026-04-21 15:31 36.22072 -9.37428 35803 ft 439 kts
2026-04-21 15:31 36.28225 -9.37492 35804 ft 439 kts
2026-04-21 15:32 36.34333 -9.37552 35803 ft 439 kts
2026-04-21 15:32 36.40436 -9.37610 35804 ft 439 kts
2026-04-21 15:33 36.46563 -9.37668 35803 ft 439 kts
2026-04-21 15:33 36.52707 -9.37726 35803 ft 439 kts
2026-04-21 15:34 36.58792 -9.37784 35803 ft 439 kts
2026-04-21 15:34 36.64941 -9.37842 35804 ft 439 kts
2026-04-21 15:35 36.71040 -9.37899 35803 ft 438 kts
2026-04-21 15:35 36.77162 -9.37957 35804 ft 439 kts
2026-04-21 15:36 36.83303 -9.38014 35804 ft 439 kts
2026-04-21 15:36 36.89454 -9.38073 35804 ft 439 kts
2026-04-21 15:37 36.95576 -9.38131 35803 ft 438 kts
2026-04-21 15:37 37.01696 -9.38183 35803 ft 445 kts
2026-04-21 15:38 37.07993 -9.38224 35803 ft 456 kts
2026-04-21 15:38 37.14408 -9.38273 35802 ft 464 kts
2026-04-21 15:39 37.20878 -9.38347 35800 ft 462 kts
2026-04-21 15:39 37.27283 -9.38418 35801 ft 460 kts
2026-04-21 15:40 37.33708 -9.38485 35795 ft 460 kts
2026-04-21 15:40 37.40171 -9.38549 35785 ft 461 kts
2026-04-21 15:41 37.46567 -9.38612 35777 ft 461 kts
2026-04-21 15:41 37.52992 -9.38675 35777 ft 461 kts
2026-04-21 15:42 37.59409 -9.38693 35775 ft 460 kts
2026-04-21 15:42 37.65805 -9.37947 35777 ft 459 kts
2026-04-21 15:43 37.72150 -9.37045 35777 ft 459 kts
2026-04-21 15:43 37.78525 -9.36143 35777 ft 459 kts
2026-04-21 15:44 37.84899 -9.35242 35777 ft 459 kts
2026-04-21 15:44 37.91231 -9.34348 35777 ft 459 kts
2026-04-21 15:45 37.97577 -9.33452 35777 ft 459 kts
2026-04-21 15:45 38.03941 -9.32551 35777 ft 459 kts
2026-04-21 15:46 38.10269 -9.31655 35777 ft 459 kts
2026-04-21 15:46 38.16600 -9.30757 35777 ft 459 kts
2026-04-21 15:47 38.22966 -9.29852 35776 ft 459 kts
2026-04-21 15:47 38.29285 -9.28953 35777 ft 459 kts
2026-04-21 15:48 38.35647 -9.28046 35777 ft 459 kts
2026-04-21 15:48 38.41943 -9.27146 35777 ft 459 kts
2026-04-21 15:49 38.48308 -9.26236 35777 ft 459 kts
2026-04-21 15:49 38.54610 -9.25333 35777 ft 459 kts
2026-04-21 15:50 38.60881 -9.24432 35777 ft 459 kts
2026-04-21 15:50 38.67176 -9.23527 35777 ft 459 kts
2026-04-21 15:51 38.73527 -9.22612 35777 ft 459 kts
2026-04-21 15:51 38.79837 -9.21701 35777 ft 459 kts
2026-04-21 15:52 38.86134 -9.20790 35777 ft 459 kts
2026-04-21 15:52 38.92478 -9.19868 35775 ft 463 kts
2026-04-21 15:53 38.98946 -9.18829 35778 ft 475 kts
2026-04-21 15:53 39.05522 -9.17480 35776 ft 478 kts
2026-04-21 15:54 39.11964 -9.16104 35775 ft 470 kts
2026-04-21 15:54 39.18427 -9.14961 35778 ft 471 kts
2026-04-21 15:55 39.24915 -9.13825 35777 ft 474 kts
2026-04-21 15:55 39.31408 -9.12683 35776 ft 473 kts
2026-04-21 15:56 39.37926 -9.11639 35776 ft 472 kts
2026-04-21 15:56 39.44420 -9.10609 35765 ft 473 kts
2026-04-21 15:57 39.50937 -9.09490 35754 ft 473 kts
2026-04-21 15:57 39.57449 -9.08222 35750 ft 474 kts
2026-04-21 15:58 39.63943 -9.06876 35750 ft 474 kts
2026-04-21 15:58 39.70468 -9.05523 35750 ft 474 kts
2026-04-21 15:59 39.76991 -9.04171 35750 ft 474 kts
2026-04-21 15:59 39.83508 -9.02821 35750 ft 474 kts
2026-04-21 16:00 39.90029 -9.01468 35750 ft 475 kts
2026-04-21 16:00 39.96550 -9.00113 35750 ft 475 kts
2026-04-21 16:01 40.03069 -8.98756 35750 ft 475 kts
2026-04-21 16:01 40.09570 -8.97401 35750 ft 475 kts
2026-04-21 16:02 40.16066 -8.96043 35889 ft 473 kts
2026-04-21 16:02 40.22538 -8.94689 35884 ft 477 kts